Location: Eppenbrunn
(49.1158°N, 7.5601°E)
Time: 23:48:29
(UTC+00:00)

Cosmos 1703 - Pass Details

Date: 09 April 2020
Orbit: 524 x 540 km, 82.5° (Epoch: 30 May)

Event Time Altitude Azimuth Distance (km) Brightness Sun altitude
Rises 18:59:20 0° 349° (NNW) 2,707 7.4 -8.0°
Reaches altitude 10° 19:01:30 10° 348° (NNW) 1,812 6.5 -8.3°
Maximum altitude 19:05:29 80° 262° (W) 556 3.4 -8.9°
Drops below altitude 10° 19:09:27 10° 176° (S) 1,800 5.7 -9.5°
Sets 19:11:35 0° 175° (S) 2,687 6.5 -9.8°
